"Pseudo-MPEC" for P225jxS

Created 2025 Jan 17 13:31:05 UT using Find_Orb

Click here for an explanation of pseudo-MPECs

 
 Astrometry: 
     P225jxS  C2025 01 02.52958908 22 36.059+51 40 37.27   ~1B1H 21.90GVNEOCPF51
     P225jxS  C2025 01 02.53023008 22 35.911+51 40 36.71   ~1B1H 19.43GVNEOCPF51
     P225jxS  C2025 01 02.54415708 22 32.312+51 40 22.17   ~1B1H 19.86GVNEOCPF51
     P225jxS  C2025 01 02.55743108 22 28.913+51 40 08.72   ~1B1H 21.60GVNEOCPF51
     P225jxS  C2025 01 02.55807208 22 28.740+51 40 08.39   ~1B1H 20.20GVNEOCPF51
     P225jxS  C2025 01 02.57144808 22 25.350+51 39 54.31   ~1B1H 21.73GVNEOCPF51
     P225jxS  C2025 01 02.57208808 22 25.196+51 39 53.83   ~1B1H 20.33GVNEOCPF51
     P225jxS* C2025 01 07.42685408 02 12.111+50 06 25.82   ~17Fl 21.81wXNEOCPF52
     P225jxS  C2025 01 07.43906808 02 09.004+50 06 10.13   ~17Fl 21.73wXNEOCPF52
     P225jxS  C2025 01 07.45129608 02 05.952+50 05 54.03   ~17Fl 21.83wXNEOCPF52
     P225jxS  C2025 01 07.46347508 02 02.862+50 05 38.27   ~17Fl 21.78wXNEOCPF52
     P225jxS 1C2025 01 08.52532807 57 41.751+49 42 00.96   ~18Ml 21.54GVNEOCPT12
     P225jxS 1C2025 01 08.53134807 57 40.258+49 41 52.73   ~18Ml 21.45GVNEOCPT12
     P225jxS  C2025 01 17.48092007 23 38.090+45 43 32.10   ~1HDH       VNEOCP291
     P225jxS  C2025 01 17.52039007 23 29.820+45 42 20.80   ~1HDH       VNEOCP291

Station data:
(291) LPL/Spacewatch II  (N31.961669 W111.599905)  US/Arizona.  Observers J.
   V. Scotti, R. S. McMillan. 1.8-m f/2.7 reflector + CCD.
(F51) Pan-STARRS 1, Haleakala  (N20.707234 W156.255910)  US/Hawaii.
   Observers J. Bulger, T. Lowe, A. Schultz, M. Willman. Measurers K.
   Chambers, S. Chastel, T. de Boer, L. Denneau, J. Fairlamb, H. Flewelling,
   M. Huber, C.-C. Lin, E. Magnier, Y. Ramanjooloo, R. Wainscoat, R. Weryk.
   1.8-m Ritchey-Chrétien + CCD.
(F52) Pan-STARRS 2, Haleakala  (N20.707382 W156.255910)  US/Hawaii.
   Observers J. Bulger, T. Dukes, T. Lowe, A. Schultz, M. Willman. Measurers
   K. Chambers, S. Chastel, T. de Boer, L. Denneau, J. Fairlamb, H.
   Flewelling, M. Huber, C.-C. Lin, E. Magnier, Y. Ramanjooloo, R. Wainscoat,
   R. Weryk. 1.8-m Ritchey-Chrétien + CCD.
(T12) Mauna Kea-UH/Tholen NEO Follow-Up (2.24-m)  (N19.822991 W155.469434)
   US/Hawaii.  Observer R. Weryk. 2.24-m f/10.1 University of Hawaii
   reflector.

Orbital elements:  P225jxS
   Perihelion 2024 Jul 1.55052 +/- 0.301 TT = 13:12:44 (JD 2460493.05052)
Epoch 2025 Jan 17.0 TT = JDT 2460692.5                           AutoNEOCP
M  61.03576109 +/- 0.15             (J2000 ecliptic)
n   0.30602115 +/- 0.000335         Peri.   85.82758 +/- 0.16
a   2.18089664 +/- 0.00159          Node   299.24791 +/- 0.008
e   0.1658416 +/- 0.000117          Incl.   58.42224 +/- 0.029
P   3.22072                H 18.69  G  0.15   U  7.4
q 1.81921307 +/- 0.00116    Q 2.54258022 +/- 0.00205
From 15 observations 2025 Jan. 2-17; mean residual 0".17
Residuals in arcseconds: 
250102 F51  .05+  .14+    250102 F51  .07+  .21-    250107 F52  .19-  .09-    
250102 F51  .20+  .23+    250102 F51  .16+  .04-    250108 T12  .01-  .02-    
250102 F51  .11-  .18-    250107 F52  .17+  .02-    250108 T12  .03+  .06+    
250102 F51  .13-  .12-    250107 F52  .17-  .08+    250117 291  .14+  .42-    
250102 F51  .22-  .20+    250107 F52  .06+  .17-    250117 291  .15-  .37+    

Ephemerides (geocentric):
Date (UTC) HH   RA             Dec           delta  r     elong  mag " sig PA
---- --------  ------------   ------------  ------ ------ -----  --- --------
2025 01 17 14  07 23 17.397   +45 40 29.37  1.1280 2.0581 154.0 21.3 .276 141
2025 01 17 15  07 23 08.762   +45 39 14.32  1.1281 2.0582 154.0 21.3 .279 141
2025 01 17 16  07 23 00.137   +45 37 59.20  1.1283 2.0582 154.0 21.3 .281 141
2025 01 17 17  07 22 51.520   +45 36 44.03  1.1284 2.0583 154.0 21.3 .284 141
2025 01 17 18  07 22 42.913   +45 35 28.79  1.1285 2.0584 154.0 21.3 .286 140
2025 01 17 19  07 22 34.315   +45 34 13.49  1.1286 2.0585 154.0 21.3 .289 140
2025 01 17 20  07 22 25.726   +45 32 58.13  1.1287 2.0586 154.0 21.3 .292 140
2025 01 17 21  07 22 17.147   +45 31 42.70  1.1288 2.0586 154.0 21.3 .294 140
2025 01 17 22  07 22 08.576   +45 30 27.22  1.1289 2.0587 154.0 21.3 .297 140
2025 01 17 23  07 22 00.015   +45 29 11.68  1.1290 2.0588 154.0 21.3 .300 140
2025 01 18 00  07 21 51.464   +45 27 56.07  1.1291 2.0589 154.0 21.3 .302 139
2025 01 18 01  07 21 42.921   +45 26 40.41  1.1292 2.0590 153.9 21.3 .305 139
2025 01 18 02  07 21 34.388   +45 25 24.68  1.1294 2.0590 153.9 21.3 .308 139
2025 01 18 03  07 21 25.864   +45 24 08.90  1.1295 2.0591 153.9 21.3 .310 139
2025 01 18 04  07 21 17.350   +45 22 53.05  1.1296 2.0592 153.9 21.3 .313 139
2025 01 18 05  07 21 08.844   +45 21 37.15  1.1297 2.0593 153.9 21.3 .316 139
2025 01 18 06  07 21 00.349   +45 20 21.19  1.1298 2.0594 153.9 21.3 .319 138
2025 01 18 07  07 20 51.862   +45 19 05.17  1.1299 2.0594 153.9 21.3 .321 138
2025 01 18 08  07 20 43.385   +45 17 49.09  1.1301 2.0595 153.9 21.3 .324 138
2025 01 18 09  07 20 34.917   +45 16 32.95  1.1302 2.0596 153.9 21.3 .327 138
2025 01 18 10  07 20 26.459   +45 15 16.75  1.1303 2.0597 153.9 21.3 .330 138
2025 01 18 11  07 20 18.010   +45 14 00.50  1.1304 2.0598 153.9 21.3 .332 138
2025 01 18 12  07 20 09.571   +45 12 44.19  1.1305 2.0598 153.9 21.3 .335 138
2025 01 18 13  07 20 01.141   +45 11 27.82  1.1307 2.0599 153.8 21.3 .338 137
2025 01 18 14  07 19 52.720   +45 10 11.39  1.1308 2.0600 153.8 21.3 .341 137
2025 01 18 15  07 19 44.309   +45 08 54.91  1.1309 2.0601 153.8 21.3 .344 137
2025 01 18 16  07 19 35.907   +45 07 38.37  1.1310 2.0602 153.8 21.3 .347 137
2025 01 18 17  07 19 27.515   +45 06 21.77  1.1311 2.0603 153.8 21.3 .350 137
2025 01 18 18  07 19 19.132   +45 05 05.12  1.1313 2.0603 153.8 21.3 .352 137
2025 01 18 19  07 19 10.759   +45 03 48.41  1.1314 2.0604 153.8 21.3 .355 136
2025 01 18 20  07 19 02.396   +45 02 31.65  1.1315 2.0605 153.8 21.3 .358 136
2025 01 18 21  07 18 54.041   +45 01 14.83  1.1317 2.0606 153.8 21.3 .361 136
2025 01 18 22  07 18 45.697   +44 59 57.95  1.1318 2.0607 153.7 21.3 .364 136
2025 01 18 23  07 18 37.362   +44 58 41.02  1.1319 2.0607 153.7 21.3 .367 136
2025 01 19 00  07 18 29.036   +44 57 24.04  1.1320 2.0608 153.7 21.3 .370 136
2025 01 19 01  07 18 20.720   +44 56 07.00  1.1322 2.0609 153.7 21.3 .373 135
2025 01 19 02  07 18 12.414   +44 54 49.90  1.1323 2.0610 153.7 21.3 .376 135
2025 01 19 03  07 18 04.117   +44 53 32.76  1.1324 2.0611 153.7 21.3 .379 135
2025 01 19 04  07 17 55.830   +44 52 15.55  1.1326 2.0611 153.7 21.3 .382 135
2025 01 19 05  07 17 47.552   +44 50 58.30  1.1327 2.0612 153.7 21.3 .385 135
2025 01 19 06  07 17 39.284   +44 49 40.99  1.1328 2.0613 153.6 21.3 .388 135
2025 01 19 07  07 17 31.026   +44 48 23.62  1.1330 2.0614 153.6 21.3 .391 135
2025 01 19 08  07 17 22.777   +44 47 06.21  1.1331 2.0615 153.6 21.3 .395 134
2025 01 19 09  07 17 14.538   +44 45 48.74  1.1332 2.0615 153.6 21.3 .398 134
2025 01 19 10  07 17 06.309   +44 44 31.22  1.1334 2.0616 153.6 21.3 .401 134
2025 01 19 11  07 16 58.089   +44 43 13.64  1.1335 2.0617 153.6 21.3 .404 134
2025 01 19 12  07 16 49.879   +44 41 56.02  1.1336 2.0618 153.6 21.3 .407 134
2025 01 19 13  07 16 41.679   +44 40 38.34  1.1338 2.0619 153.5 21.3 .410 134